EJU38UD LEPA-EGHI

Flight info

Callsign EJU38UD
Flight time N/A
Altitude 38000
Route DRAGO DCT PAPOS DCT UMURE DCT XIKEN DCT KARES DCT ARBEK DCT REBUL DCT USKAR DCT MOPAS DCT GIROM DCT AGN DCT SECHE DCT UVELI DCT CNA DCT MANAK UY110 ORIST Y110 THRED
Aircraft A320/M-SDE2E3FGHIJ1RWXYZ/LB1

Departure

Time 2026-05-06 09:16
Airport Palma de Mallorca Airport (LEPA)

Arrival

Time N/A
Airport Southampton Airport (EGHI)
Time Latitude Longitude Altitude Speed Heading
2026-05-06 08:47 39.55194 2.73514 37 ft 0 kts 240°
2026-05-06 08:51 39.55195 2.73514 37 ft 0 kts 240°
2026-05-06 09:07 39.55195 2.73515 38 ft 1 kts 240°
2026-05-06 09:08 39.55206 2.73542 38 ft 4 kts 248°
2026-05-06 09:08 39.55214 2.73575 38 ft 4 kts 265°
2026-05-06 09:08 39.55211 2.73606 37 ft 4 kts 312°
2026-05-06 09:08 39.55203 2.73616 36 ft 1 kts 328°
2026-05-06 09:09 39.55202 2.73616 36 ft 0 kts 328°
2026-05-06 09:11 39.55212 2.73608 37 ft 5 kts 328°
2026-05-06 09:11 39.55258 2.73572 38 ft 10 kts 328°
2026-05-06 09:11 39.55332 2.73514 38 ft 13 kts 329°
2026-05-06 09:12 39.55412 2.73453 38 ft 14 kts 334°
2026-05-06 09:12 39.55478 2.73520 38 ft 14 kts 59°
2026-05-06 09:12 39.55534 2.73569 38 ft 10 kts 339°
2026-05-06 09:12 39.55590 2.73524 38 ft 9 kts 328°
2026-05-06 09:13 39.55647 2.73509 36 ft 10 kts 19°
2026-05-06 09:13 39.55702 2.73601 38 ft 16 kts 58°
2026-05-06 09:13 39.55764 2.73733 38 ft 18 kts 58°
2026-05-06 09:13 39.55832 2.73877 38 ft 20 kts 58°
2026-05-06 09:14 39.55906 2.74033 38 ft 21 kts 58°
2026-05-06 09:14 39.55977 2.74183 38 ft 13 kts 58°
2026-05-06 09:14 39.56045 2.74272 38 ft 15 kts 27°
2026-05-06 09:14 39.56141 2.74337 37 ft 17 kts 27°
2026-05-06 09:15 39.56228 2.74291 38 ft 12 kts 280°
2026-05-06 09:15 39.56187 2.74179 38 ft 25 kts 239°
2026-05-06 09:15 39.55951 2.73680 37 ft 101 kts 238°
2026-05-06 09:15 39.55482 2.72685 39 ft 156 kts 239°
2026-05-06 09:16 39.54876 2.71399 419 ft 167 kts 240°
2026-05-06 09:16 39.54259 2.70092 1006 ft 173 kts 236°
2026-05-06 09:16 39.53593 2.68744 1498 ft 186 kts 236°
2026-05-06 09:16 39.52840 2.67261 1794 ft 209 kts 236°
2026-05-06 09:17 39.52000 2.65622 2267 ft 223 kts 236°
2026-05-06 09:17 39.51141 2.63945 3096 ft 224 kts 236°
2026-05-06 09:17 39.50278 2.62259 3911 ft 225 kts 237°
2026-05-06 09:17 39.49415 2.60575 4760 ft 224 kts 237°
2026-05-06 09:18 39.48551 2.58891 5571 ft 224 kts 237°
2026-05-06 09:18 39.47685 2.57205 6379 ft 225 kts 237°
2026-05-06 09:18 39.46815 2.55511 7128 ft 227 kts 237°
2026-05-06 09:18 39.45944 2.53810 7914 ft 227 kts 237°
2026-05-06 09:19 39.45121 2.52049 8565 ft 236 kts 249°
2026-05-06 09:19 39.44964 2.49869 8872 ft 259 kts 281°
2026-05-06 09:19 39.45799 2.47742 9381 ft 277 kts 311°
2026-05-06 09:19 39.47362 2.46224 10119 ft 285 kts 323°
2026-05-06 09:20 39.49068 2.44758 10445 ft 306 kts 323°